Wind_Speed
26 24 25 23 23 20 14 21 18 25 24 23 24 23 23 23 24 26 25 25 21 21 20 17 19 22 30 34 36 40 35 36 41 38 34 32 30 31 38 35 31 28 24 22 19 14 9 11 7
27 23 24 22 20 12 11 28 26 25 26 24 20 19 20 20 23 24 22 24 24 23 23 19 18 17 19 26 34 36 41 23 34 33 37 35 30 34 39 36 33 30 23 19 18 13 11 8 7
26 23 23 21 20 12 13 28 28 28 25 20 18 18 19 18 17 23 24 25 25 27 26 26 25 23 22 23 26 36 39 38 25 28 27 31 31 34 43 34 30 26 24 22 16 13 13 10 9
26 23 21 20 19 18 18 25 28 27 24 17 18 21 21 21 23 25 26 27 25 27 28 28 29 27 25 25 27 32 42 40 31 24 21 30 33 36 40 40 36 29 23 20 19 17 15 12 12
25 22 20 21 20 20 22 24 29 24 20 19 17 20 21 19 27 28 27 30 30 30 30 29 30 30 28 28 34 38 36 32 29 24 26 33 33 42 38 42 34 27 24 24 21 18 16 13 12
25 22 18 18 17 23 22 25 25 20 19 19 17 18 20 24 29 27 29 30 29 28 30 28 32 30 31 31 32 31 31 31 22 25 29 28 44 45 44 42 28 28 27 24 22 20 15 13 13
24 22 18 17 19 22 28 27 22 17 20 19 18 16 20 23 30 29 28 30 29 29 29 28 29 30 32 30 28 24 31 29 24 26 27 31 41 46 37 35 31 31 27 27 23 19 16 15 13
25 22 18 19 20 23 31 24 21 19 20 20 17 15 20 25 29 30 29 27 28 25 20 21 25 30 31 32 33 22 36 23 24 22 26 21 24 29 37 34 33 32 31 27 23 19 18 15 14
26 23 19 19 21 21 30 26 22 20 19 21 18 17 21 24 28 30 29 25 24 18 17 15 20 26 31 32 33 33 33 24 21 19 22 24 25 26 38 35 36 34 29 26 23 21 17 16 16
27 23 19 22 21 24 29 27 23 21 21 21 21 18 21 22 28 30 28 25 21 18 15 14 17 16 24 33 34 31 30 32 24 23 24 24 29 33 45 41 38 32 28 27 23 21 19 19 17
26 21 21 24 22 24 28 28 22 20 22 25 22 19 21 21 24 33 27 25 20 17 15 12 9 15 24 23 30 32 24 31 29 29 23 28 29 37 44 41 40 30 28 26 25 23 21 21 18
28 23 24 24 23 22 26 27 22 20 21 21 22 20 21 20 23 29 25 23 18 17 18 13 6 16 25 26 26 36 36 31 34 32 30 32 36 37 53 42 40 34 31 28 27 24 23 21 18
27 23 24 25 24 23 24 26 22 18 19 16 20 19 18 17 21 24 20 20 18 16 16 16 10 9 23 25 23 29 35 32 41 32 31 32 30 34 46 38 39 38 33 30 29 25 25 22 19
26 24 23 24 24 25 22 23 21 19 14 14 16 16 15 15 17 19 19 18 18 16 16 17 16 13 15 23 25 34 31 32 29 32 35 35 37 37 46 42 40 39 33 32 30 30 27 22 19
28 24 24 21 24 23 23 20 21 19 14 11 14 13 15 14 15 16 17 17 15 15 16 17 19 16 18 20 24 30 29 30 27 33 37 37 41 45 50 45 44 41 35 33 31 30 26 20 19
28 23 22 21 24 22 23 16 19 18 13 10 13 13 15 12 14 14 15 15 14 16 18 21 19 18 16 16 15 30 38 36 29 33 37 35 38 37 53 48 44 42 39 35 30 29 25 23 21
28 21 21 19 25 24 21 18 19 16 15 10 12 14 16 14 17 17 18 16 14 15 18 15 8 19 13 14 12 23 35 32 33 39 35 38 39 37 42 48 49 43 43 34 31 28 27 24 24
26 24 19 18 20 25 23 18 20 16 16 11 14 11 15 18 17 16 18 17 16 14 15 12 6 15 6 10 13 14 28 33 28 31 35 39 31 25 39 35 48 47 40 35 31 29 26 25 25
29 20 20 20 22 27 21 20 21 17 16 13 13 11 14 15 19 15 17 16 16 13 12 8 10 8 19 15 9 4 25 27 25 26 27 30 32 34 31 32 42 43 38 32 28 26 26 26 28
30 24 26 25 30 23 22 21 20 18 17 14 13 11 13 12 16 14 14 14 15 13 11 8 7 10 9 10 6 8 7 16 22 26 29 24 20 15 18 20 31 36 32 27 27 27 26 26 27
32 28 28 29 26 24 25 24 19 17 19 12 13 12 13 12 11 11 13 12 13 13 10 8 7 7 9 7 10 9 8 5 5 17 17 22 21 16 15 14 18 22 24 25 24 25 26 28 27
33 28 30 33 29 26 23 23 19 14 17 14 17 13 12 12 11 11 12 13 10 12 8 5 5 5 5 4 1 8 16 8 10 7 12 11 15 17 17 20 19 22 21 22 21 24 25 25 23
29 35 37 37 31 29 27 24 19 15 17 17 18 17 13 12 13 12 10 12 11 8 9 5 5 5 4 4 3 3 4 6 9 10 15 15 18 21 17 19 24 24 22 20 21 17 18 18 19
33 39 40 36 31 35 26 28 19 13 14 19 17 17 16 11 13 14 13 13 11 8 7 7 5 5 5 4 3 2 3 3 5 5 5 15 18 18 18 18 20 20 16 17 15 15 16 15 14
39 41 39 34 35 34 27 31 22 16 19 20 18 17 18 12 13 15 15 17 13 12 9 7 6 4 2 2 3 4 6 6 5 5 5 7 9 10 11 11 11 13 15 17 19 17 18 19 20
43 37 37 35 30 28 31 29 24 24 21 21 20 19 20 13 13 15 16 18 15 14 13 10 6 6 5 3 4 5 6 6 7 8 9 10 11 12 12 11 12 14 16 17 20 22 22 25 30
40 44 35 32 24 25 25 27 22 23 21 21 21 19 20 19 15 15 17 19 17 14 15 13 8 7 8 8 10 8 9 11 11 10 11 12 14 15 15 16 16 17 18 20 22 24 25 28 32
43 33 38 42 39 32 25 16 8 20 25 29 23 19 19 20 21 17 20 21 21 18 16 16 14 12 13 13 13 11 12 10 9 10 13 15 18 19 18 19 19 21 20 23 26 26 30 32 33
39 41 44 36 40 29 27 21 23 28 30 26 24 23 27 25 24 22 21 23 25 24 21 20 18 19 19 18 17 16 16 16 15 14 14 15 16 18 18 19 20 23 24 25 25 26 29 33 36
32 37 37 40 27 31 28 24 29 26 26 24 24 17 21 25 24 24 23 25 25 25 23 24 25 22 22 22 20 20 19 19 17 17 17 18 19 20 21 23 24 24 25 26 29 29 29 31 34
Wind_Direction
293 298 301 304 301 291 290 273 284 290 287 285 289 286 286 287 279 275 275 275 272 258 270 270 260 253 248 244 243 242 240 248 237 228 226 232 228 211 218 210 212 208 200 199 208 202 199 225 227
290 294 294 303 295 288 299 271 296 286 282 294 287 296 306 300 297 299 282 280 281 276 279 281 275 269 264 250 247 244 230 240 226 215 224 232 228 217 219 199 208 206 193 192 204 192 223 207 233
285 289 291 301 293 268 245 275 288 284 289 286 289 303 303 302 304 296 299 294 291 286 282 282 276 272 272 249 251 240 239 229 263 215 216 225 216 215 210 195 199 200 206 202 201 222 206 209 235
281 284 286 294 288 282 265 289 285 285 294 287 294 304 306 307 307 297 292 288 283 281 279 275 272 271 266 253 247 239 235 247 239 224 212 210 220 208 200 200 207 199 202 208 221 205 210 213 230
276 278 288 293 287 271 273 281 283 282 287 285 291 304 312 314 310 305 294 285 276 271 272 270 263 266 255 251 240 230 222 240 247 248 226 223 222 212 217 208 201 202 198 219 203 205 214 217 225
270 270 279 288 286 278 275 281 280 287 279 284 291 306 302 309 311 305 303 291 283 276 267 264 257 257 248 245 238 220 208 221 222 242 245 215 212 212 207 202 187 205 219 205 207 211 217 219 223
260 260 268 270 272 268 282 286 275 281 274 278 293 308 300 304 311 310 308 297 289 283 275 266 258 254 248 241 253 227 212 207 210 219 241 250 218 207 203 198 191 207 211 211 209 213 221 224 225
252 254 263 266 272 275 274 284 279 273 267 279 292 300 299 305 309 312 310 298 286 283 276 268 259 253 251 235 235 228 198 203 207 213 229 242 229 210 202 196 200 206 207 212 210 217 225 223 222
246 250 258 265 270 270 270 282 277 268 267 272 286 298 304 301 312 314 316 303 298 290 288 285 289 248 245 232 232 225 218 200 213 208 219 220 243 233 218 198 200 205 208 214 215 224 229 230 228
243 246 252 255 265 271 271 281 273 273 271 271 277 289 300 305 312 316 311 311 307 290 288 292 284 242 231 226 228 227 219 202 209 209 217 218 211 226 215 204 203 213 210 219 221 230 232 231 228
239 242 244 252 258 266 271 278 274 276 270 269 275 286 289 302 310 314 310 309 307 303 297 302 262 234 234 218 219 224 224 226 219 209 217 231 221 216 218 201 201 215 215 220 227 229 237 236 234
235 238 247 251 253 258 268 275 275 278 277 283 278 282 291 297 304 309 311 308 313 303 300 303 287 224 209 207 219 221 221 219 225 228 223 221 236 232 227 198 205 214 215 222 232 233 240 241 245
233 237 244 249 253 252 264 272 278 272 278 292 283 282 291 301 305 312 320 318 305 299 294 300 296 234 210 228 225 209 227 241 235 237 231 227 241 224 201 197 208 215 216 222 233 235 242 249 253
229 233 244 248 253 254 257 270 275 266 275 289 289 284 296 300 306 310 324 334 325 305 295 295 292 248 221 215 217 215 222 226 222 226 232 234 231 225 202 204 210 215 219 227 231 238 246 246 254
230 230 241 250 256 257 256 268 277 268 268 275 290 286 294 293 300 303 319 330 330 316 304 290 279 267 234 227 237 228 224 226 224 230 229 228 230 227 218 212 210 216 222 229 235 243 247 253 254
233 235 243 245 256 260 253 269 285 272 270 277 284 286 286 285 285 306 312 320 330 321 318 293 277 270 241 237 260 228 215 224 220 218 228 234 228 229 213 213 214 220 223 228 236 241 252 255 259
229 235 239 245 252 260 254 262 280 280 273 275 280 279 275 273 277 295 303 313 323 327 334 326 281 271 219 232 276 236 220 217 213 221 232 227 224 235 216 227 217 225 224 230 233 241 254 261 265
227 231 240 239 257 249 261 256 267 273 270 269 282 281 272 273 276 285 293 304 319 328 338 356 300 284 246 245 273 228 211 215 221 225 224 216 220 236 240 242 225 226 222 230 235 241 254 263 267
232 225 227 239 244 247 252 249 266 268 269 276 283 280 279 264 276 277 291 300 311 321 326 343 354 298 299 283 303 228 207 204 214 220 221 228 242 253 240 235 231 218 224 227 234 246 253 264 264
229 219 229 233 245 245 250 246 255 266 270 276 275 281 276 266 275 277 287 292 304 314 321 325 341 343 326 276 296 225 191 208 214 218 228 217 207 222 221 224 220 227 231 235 244 255 264 268 276
224 223 228 236 247 241 245 246 248 262 270 274 275 281 276 274 275 285 283 284 299 307 319 318 329 347 351 269 237 283 202 222 233 221 200 206 212 223 227 217 219 232 236 245 255 267 273 273 274
222 221 230 238 236 241 252 243 244 243 265 274 277 288 280 277 271 274 279 282 290 302 310 324 327 355 4 15 290 272 275 263 233 233 206 222 228 229 232 233 246 255 256 255 265 272 271 272 270
217 219 226 233 235 240 242 247 241 235 246 267 283 290 281 273 268 265 267 284 275 290 299 310 325 337 359 359 38 8 340 336 305 267 242 236 227 236 253 254 263 262 257 258 260 261 265 263 263
210 222 225 234 235 240 237 246 247 237 251 265 265 276 279 283 258 251 258 275 269 275 284 299 309 318 334 329 310 333 278 264 290 283 245 237 234 249 254 249 252 257 251 242 248 244 263 265 269
215 222 224 233 234 243 245 247 244 234 229 244 254 267 271 279 262 242 249 263 266 264 264 278 294 292 282 315 328 303 281 272 260 243 260 259 250 250 254 258 255 246 235 237 246 245 255 262 257
218 223 231 241 244 250 246 245 239 247 241 245 248 251 266 265 262 235 235 252 260 263 256 252 263 284 273 259 292 293 284 276 266 269 255 246 249 247 245 248 250 253 255 256 261 265 266 267 262
213 216 220 217 217 212 224 250 256 241 244 251 250 249 258 263 259 243 232 243 253 258 254 253 252 267 266 283 289 284 283 266 256 261 264 258 248 246 245 248 251 255 260 264 265 266 266 265 267
215 217 216 220 223 224 215 240 215 243 231 235 238 242 248 252 260 243 233 231 239 255 258 252 246 260 276 268 268 275 273 264 268 271 262 261 263 260 256 254 255 258 262 270 264 265 268 266 269
216 212 214 226 236 234 238 233 231 225 243 242 237 240 247 259 262 257 246 233 228 244 256 254 256 268 264 257 265 270 262 262 274 277 276 264 263 257 258 256 271 277 275 277 273 280 271 267 269
221 213 220 222 227 237 229 218 229 237 246 243 248 248 253 258 257 258 252 239 238 237 244 252 256 261 261 255 264 271 263 262 262 261 266 270 270 268 269 270 276 273 274 278 280 284 281 281 281
Height
5815 5814 5812 5812 5813 5810 5808 5805 5803 5800 5799 5798 5796 5793 5790 5787 5785 5785 5781 5778 5779 5778 5778 5776 5777 5778 5779 5780 5783 5787 5790 5793 5794 5797 5801 5805 5807 5810 5813 5817 5821 5822 5823 5824 5826 5828 5830 5834 5834
5811 5809 5808 5808 5809 5807 5813 5801 5799 5796 5794 5792 5789 5787 5785 5782 5779 5777 5776 5774 5773 5773 5774 5774 5774 5774 5775 5777 5778 5782 5786 5788 5789 5792 5795 5800 5802 5805 5808 5810 5815 5819 5820 5821 5825 5826 5828 5828 5830
5807 5805 5804 5803 5803 5804 5809 5797 5794 5791 5789 5787 5785 5783 5780 5778 5776 5774 5772 5771 5770 5769 5769 5769 5769 5771 5772 5772 5773 5774 5778 5782 5783 5784 5787 5794 5796 5799 5803 5807 5813 5816 5817 5818 5822 5822 5825 5825 5826
5803 5801 5801 5799 5800 5800 5798 5793 5789 5787 5784 5782 5781 5779 5776 5774 5771 5770 5767 5765 5764 5763 5763 5764 5764 5766 5767 5767 5766 5767 5770 5774 5779 5780 5783 5788 5792 5795 5798 5801 5808 5810 5813 5817 5818 5821 5822 5821 5823
5798 5796 5795 5794 5795 5795 5793 5790 5786 5785 5781 5779 5777 5775 5772 5770 5767 5765 5763 5760 5759 5758 5757 5758 5758 5760 5760 5761 5757 5757 5762 5769 5773 5777 5779 5785 5788 5790 5795 5799 5803 5808 5812 5815 5816 5817 5819 5819 5821
5793 5791 5791 5791 5794 5789 5787 5785 5783 5780 5778 5776 5774 5772 5770 5767 5764 5762 5757 5754 5753 5752 5750 5752 5750 5752 5752 5754 5742 5751 5753 5764 5766 5772 5776 5781 5783 5787 5790 5793 5799 5805 5808 5812 5812 5815 5815 5815 5816
5787 5786 5787 5787 5789 5786 5782 5782 5778 5775 5774 5773 5771 5768 5767 5765 5761 5756 5754 5750 5748 5745 5744 5745 5746 5745 5745 5749 5739 5737 5748 5759 5762 5767 5772 5775 5779 5783 5787 5790 5795 5802 5806 5809 5809 5811 5812 5812 5814
5781 5780 5781 5782 5783 5782 5777 5777 5774 5772 5771 5770 5768 5766 5764 5761 5757 5753 5750 5746 5744 5741 5739 5738 5740 5740 5739 5744 5742 5730 5737 5752 5757 5763 5768 5770 5778 5780 5782 5787 5793 5798 5803 5805 5807 5807 5808 5810 5811
5775 5776 5776 5778 5778 5778 5773 5773 5770 5768 5767 5766 5765 5763 5761 5758 5754 5750 5745 5742 5739 5737 5734 5733 5734 5735 5734 5735 5738 5734 5744 5745 5754 5760 5763 5766 5773 5778 5782 5786 5790 5795 5799 5802 5803 5804 5806 5808 5808
5769 5769 5771 5773 5773 5773 5770 5768 5766 5765 5762 5762 5761 5759 5758 5755 5751 5746 5743 5739 5736 5734 5732 5730 5730 5730 5731 5733 5736 5739 5743 5748 5754 5757 5762 5765 5770 5773 5776 5781 5786 5791 5795 5799 5799 5801 5804 5805 5804
5763 5764 5764 5766 5767 5768 5767 5765 5762 5760 5759 5757 5757 5757 5754 5752 5749 5743 5739 5736 5733 5730 5729 5727 5725 5726 5728 5731 5731 5730 5742 5748 5751 5755 5758 5761 5765 5768 5772 5775 5781 5788 5792 5794 5796 5797 5800 5801 5801
5755 5757 5758 5760 5760 5762 5763 5761 5759 5756 5756 5754 5753 5753 5750 5748 5746 5741 5737 5734 5730 5728 5726 5725 5723 5726 5726 5729 5730 5735 5738 5741 5745 5748 5755 5758 5760 5763 5765 5770 5778 5784 5787 5790 5791 5793 5796 5796 5797
5750 5750 5752 5754 5755 5756 5757 5757 5755 5753 5751 5751 5749 5749 5747 5745 5742 5740 5735 5732 5729 5727 5725 5722 5721 5723 5728 5729 5731 5733 5735 5736 5740 5746 5750 5753 5755 5760 5761 5766 5774 5779 5782 5785 5786 5790 5791 5793 5794
5743 5744 5746 5748 5750 5751 5752 5752 5751 5749 5747 5747 5746 5744 5743 5742 5740 5737 5734 5730 5727 5724 5722 5720 5720 5721 5722 5725 5727 5728 5729 5733 5736 5742 5746 5749 5752 5757 5758 5762 5769 5774 5778 5780 5782 5785 5787 5789 5789
5737 5739 5740 5743 5745 5746 5747 5749 5747 5745 5744 5743 5742 5740 5739 5739 5738 5735 5732 5729 5727 5723 5721 5719 5717 5717 5718 5720 5721 5721 5723 5727 5732 5736 5740 5744 5746 5751 5755 5759 5764 5769 5772 5775 5778 5781 5785 5785 5785
5732 5734 5735 5737 5739 5741 5743 5745 5744 5743 5741 5739 5738 5736 5736 5735 5735 5733 5731 5729 5726 5723 5719 5715 5713 5714 5715 5716 5716 5715 5717 5722 5725 5730 5735 5738 5740 5745 5751 5756 5760 5764 5766 5769 5773 5777 5780 5781 5782
5727 5730 5731 5733 5734 5736 5738 5739 5740 5739 5739 5735 5734 5733 5732 5732 5732 5730 5728 5727 5726 5723 5718 5713 5710 5711 5711 5712 5710 5707 5712 5718 5723 5727 5730 5733 5737 5741 5749 5751 5756 5758 5762 5766 5769 5771 5775 5777 5778
5722 5724 5726 5729 5732 5732 5733 5735 5735 5736 5736 5732 5731 5730 5729 5728 5728 5727 5726 5724 5722 5721 5718 5714 5712 5711 5710 5709 5708 5705 5708 5714 5719 5722 5726 5730 5736 5741 5745 5747 5750 5753 5757 5761 5765 5767 5770 5772 5774
5715 5719 5724 5725 5726 5726 5729 5731 5731 5732 5733 5730 5728 5727 5725 5725 5724 5724 5723 5722 5720 5718 5717 5715 5712 5709 5707 5707 5708 5707 5709 5711 5716 5719 5723 5729 5733 5737 5738 5740 5745 5749 5753 5757 5759 5762 5765 5767 5769
5707 5711 5715 5718 5718 5722 5724 5726 5727 5728 5728 5727 5726 5724 5723 5722 5721 5721 5721 5720 5718 5716 5715 5714 5712 5710 5707 5706 5708 5709 5710 5711 5713 5717 5721 5724 5729 5732 5735 5737 5742 5748 5751 5753 5755 5757 5761 5762 5762
5701 5705 5709 5711 5713 5718 5719 5721 5723 5724 5724 5723 5723 5723 5721 5719 5718 5718 5719 5718 5717 5715 5715 5713 5712 5709 5708 5706 5706 5709 5710 5711 5713 5714 5718 5722 5727 5730 5734 5737 5742 5745 5748 5750 5751 5753 5755 5755 5755
5694 5701 5702 5702 5708 5712 5714 5717 5718 5720 5719 5719 5720 5720 5719 5717 5715 5715 5717 5716 5716 5714 5714 5713 5712 5710 5709 5709 5708 5709 5709 5712 5714 5715 5717 5721 5725 5728 5731 5735 5738 5740 5742 5744 5745 5747 5749 5749 5750
5691 5692 5693 5694 5700 5705 5710 5713 5714 5716 5717 5716 5716 5714 5715 5714 5713 5713 5714 5714 5714 5714 5713 5713 5712 5711 5711 5710 5710 5710 5710 5712 5713 5715 5717 5719 5722 5725 5727 5730 5733 5735 5736 5738 5740 5741 5744 5745 5746
5682 5683 5686 5688 5694 5696 5705 5707 5709 5712 5715 5712 5712 5712 5712 5711 5711 5710 5711 5711 5712 5712 5712 5712 5712 5711 5710 5711 5712 5712 5711 5712 5714 5715 5715 5717 5720 5721 5723 5726 5728 5729 5730 5733 5736 5738 5740 5741 5743
5672 5676 5681 5684 5687 5691 5699 5699 5706 5706 5707 5707 5707 5707 5707 5708 5708 5707 5708 5708 5710 5710 5710 5710 5710 5711 5711 5710 5710 5711 5712 5713 5713 5714 5714 5717 5719 5721 5723 5725 5725 5727 5729 5731 5733 5736 5736 5738 5740
5664 5673 5679 5682 5686 5688 5692 5689 5700 5700 5701 5702 5702 5703 5701 5703 5704 5704 5704 5705 5706 5708 5708 5708 5708 5709 5709 5710 5710 5710 5711 5711 5712 5713 5714 5715 5717 5719 5720 5722 5723 5725 5727 5728 5730 5732 5732 5733 5736
5656 5659 5672 5673 5675 5681 5687 5687 5693 5696 5696 5697 5697 5698 5698 5698 5699 5701 5702 5702 5703 5704 5705 5706 5707 5707 5708 5708 5708 5709 5710 5710 5711 5712 5713 5714 5716 5717 5718 5719 5720 5721 5723 5724 5725 5727 5727 5728 5729
5647 5656 5662 5663 5668 5672 5681 5684 5687 5688 5692 5689 5692 5693 5693 5693 5693 5695 5697 5698 5699 5700 5702 5704 5704 5704 5705 5705 5705 5706 5707 5707 5708 5709 5710 5712 5713 5714 5715 5716 5716 5717 5718 5719 5720 5720 5721 5721 5722
5641 5644 5651 5659 5662 5668 5673 5680 5682 5680 5684 5687 5688 5689 5687 5687 5689 5690 5692 5694 5695 5696 5697 5699 5700 5701 5701 5702 5702 5703 5703 5704 5704 5704 5705 5707 5708 5709 5710 5711 5712 5713 5713 5713 5712 5712 5712 5711 5712
5632 5638 5645 5651 5657 5660 5666 5670 5670 5673 5677 5679 5681 5683 5684 5684 5684 5684 5686 5688 5690 5691 5691 5692 5694 5695 5695 5696 5698 5699 5700 5701 5702 5701 5701 5701 5702 5703 5704 5704 5705 5706 5706 5705 5706 5705 5705 5704 5703